Погода в Ашхабаде

Поиск расширенной информации на нашем сайте:

Полезная информация:

Новости сайта



02.01.2020
Опубликован Долгосрочный прогноз погоды по городам России и ближнего зарубежья на январь 2020 года.
Карты: Прогноз на январь и февраль 2020 года, Сравнение прогнозируемой аномалии приземной температуры воздуха на январь 2020 года по разным моделям.




Погода в Ашхабаде - сегодня

Время (UTC), дата Ветер
(°,м/с) 
Видим.   Явления Облачность Т
(°С)
Тd
(°С)
f(%) Тe
(°С)
Pmin
(гПа)
dP
(гПа)
Po
(мм)
O2
(г/м3)
Тmin Tmax R s Состояние
почвы
15 27.03.20 290 (З) 10 км    3/0 средняя 
[Ac trans]
+13.8 -0.7 37 +14  1022.9  0.5  748  287    +17       
18 27.03.20 210 (ЮЗ) 10 км    ясно 
+11.8 +1.5 49 +13  1023.4  0.4  749  289    +17       
21 27.03.20 260 (З) 10 км    ясно 
+8.4 +2.7 67 +9  1022.5  -1.3  748  292           
00 28.03.20 тихо ()   10 км    ясно 
+6.2 +2 74 +6  1021.7  -1  747  294           
03 28.03.20 210 (ЮЗ) 10 км    ясно 
+7.2 +1.9 69 +8  1022  0.4  747  293  +5.8        сухая 
06 28.03.20 090 (В) 10 км    3/3 1500 м 
[Sc]
+15 -4.1 26 +15  1021.3  0.1  747  286  +5.8         
09 28.03.20 100 (В) 10 км    5/3 1500 м средняя 
[Sc|Ac trans]
+18 -6.4 18 +18  1019.3  -1.8  746  283           
12 28.03.20 090 (В) 10 км    6/3 1500 м средняя 
[Sc|Ac trans]
+19 -3.8 21 +19  1017  -2.1  744  281           
15 28.03.20 100 (В) 10 км    4/3 1500 м средняя 
[Sc|Ac trans]
+17 +1.5 35 +17  1015.9  -1.2  743  282    +19.6       
18 28.03.20 160 (Ю) 10 км    ясно 
+13.2 +5.6 60 +14  1015.6  -0.6  743  285    +19.6       
21 28.03.20 140 (ЮВ) 10 км    4/0 средняя 
[Ac trans]
+11.8 +5.6 66 +12  1013.5  -2.2  741  285           
00 29.03.20 тихо ()   10 км    4/3 1500 м средняя 
[Sc|Ac trans]
+9.4 +5.1 74 +9  1012.2  -1.5  740  288           
03 29.03.20 310 (СЗ) 10 км    9/6 1500 м кучево-дожд., средняя 
[Cb cap|Ac und]
+9.8 +5.5 75 +9  1012.4  0.3  740  287  +8.9        сухая 
06 29.03.20 290 (З) 10 км    8/4 1500 м средняя 
[Sc|Ac trans]
+13.4 +5.3 58 +15  1012.2  740  284  +8.9         
09 29.03.20 160 (Ю) 10 км    9/4 1500 м средняя 
[Sc|Ac trans]
+17.6 +4.8 43 +18  1008.8  -2.8  738  279           
12 29.03.20 110 (В) 10 км    10/6 1500 м кучево-дожд., средняя 
[Cb cap|Ac und]
+19.8 +7 43 +20  1005.8  -2.8  736  275           
15 29.03.20 080 (В) 10 км    10/6 1500 м кучево-дожд., средняя 
[Cb cap|Ac und]
+18.2 +8.8 54 +19  1005.1  -0.9  736  276    +21       
18 29.03.20 270 (З) 10 км    10/5 1500 м кучево-дожд., средняя 
[Cb cap|Ac und]
+15.4 +10.3 72 +18  1005  -0.2  735  279    +21       
21 29.03.20 280 (З) 10 км    8/5 1500 м кучево-дожд., средняя 
[Cb cap|Ac und]
+14.4 +9.8 74 +16  1004.5  -0.6  735  280           
00 30.03.20 330 (СЗ) 10 км    6/5 1500 м средняя 
[Sc|Ac und]
+12.8 +9.3 79 +13  1003.5  -1.2  734  281           
03 30.03.20 290 (З) 10 км    8/3 1500 м средняя 
[Sc|Ac und]
+13.2 +9.7 79 +14  1003.6  0.2  734  280  +12        сухая 
06 30.03.20 320 (СЗ) 10 км    10/6 1500 м кучево-дожд., средняя 
[Cb cap|Ac und]
+15.8 +9 64 +16  1004.5  1.1  735  278  +12         
09 30.03.20 //0 (С) 10 км    10/6 1500 м кучево-дожд., средняя 
[Cb cap|Ac und]
+17.8 +8.8 56 +18  1003.8  -0.6  735  276           
12 30.03.20 360 (С) 10 км    10/5 1500 м кучево-дожд., средняя, верхняя 
[Cb cap|Ac trans|Ci fib]
+11.8 +9 83 +12  1002.3  -1.4  734  282           
15 30.03.20 310 (СЗ) 10 км    8/5 1500 м кучево-дожд., средняя 
[Cb cap|Ac trans]
+17.4 +10 62 +20  1002.3  734  276    +19.2       
Время (UTC), дата Ветер
(°,м/с) 
Видим.   Явления Облачность Т
(°С)
Тd
(°С)
f(%) Тe
(°С)
Pmin
(гПа)
dP
(гПа)
Po
(мм)
O2
(г/м3)
Тmin Tmax R s Состояние
почвы

Для получения пояснительной информации подведите курсор к названию столбца.

ПОГОДА в Ашхабаде - архив

Всё, что Вы хотите узнать о погоде в Ашхабаде - удобно и подробно!

Выберите нужную дату (начиная с 1 января 2019* года) и нажмите кнопку "Найти".
Будут отображены архивные сводки погоды по пункту Ашхабад, начиная с указанной даты.


Отображать данные в формате CSV (для использования в таблицах Excel)


Внимание! Наш архив погоды предназначен исключительно для личного некоммерческого использования в познавательных целях. Если Вам необходимы официальные справки о состоянии погоды (для производственных, юридических, коммерческих и т.п. целей), обращайтесь в органы Росгидромета.

*Примечание: данная дата относится к архиву по метеостанциям СССР (Россия, СНГ, Балтия).
Архив по метеостанциям Зарубежной Европы и Азии (кроме Китая) хранится 10 дней, по другим регионам земного шара (Китай, Африка, Америка, Австралия, Океания) - 1 день.

Ашхабад - район местоположения метеостанции


Название, широта, долгота, высота метеостанции:
Ашхабад (город) 38°ш. 58.3°д. 208 м над ур. моря [Туркменистан]

Дополнительная информация

В oтличие oт бoльшинства пoгoдных сайтoв мы публикуем пoдрoбную метеoинфoрмацию в детальнoм прoфессиoнальнoм фoрмате.

Характеристики температуры и влажнoсти вoздуха измеряются на высoте 2 м в тени вдали oт зданий и деревьев.
Скoрoсть ветра измеряется на высoте 10 м (на урoвне рoста челoвека скoрoсть ветра ниже в 1.5-2 раза). Если метеoстанция нахoдится в гoрoде или в лесу, тo скoрoсть ветра занижена на 2-4 м/с пo сравнению с oткрытым местoм. Скoрoсть ветра над акватoриями крупных рек и oзёр, а также на вершинах хoлмoв на 2-5 м/с выше, чем в oбычных услoвиях.
Атмoсфернoе давление в разных тoчках местнoсти мoжет значительнo oтличаться oт давления на метеoстанции, в зависимoсти oт услoвий рельефа (при пoдъёме на 10 м давление пoнижается примернo на 1 мм рт.ст.).